Location: La Brionne
(46.1728°N, 1.7849°E)
Time: 06:48:07
(UTC+00:00)

Cosmos 292 Rocket - Pass Details

Date: 16 June 2021
Orbit: 674 x 693 km, 74.0° (Epoch: 01 August)

Event Time Altitude Azimuth Distance (km) Brightness Sun altitude
Rises 20:42:47 0° 197° (SSW) 3,051 6.8 -8.1°
Reaches altitude 10° 20:45:05 10° 196° (SSW) 2,137 6.0 -8.4°
Maximum altitude 20:49:54 82° 110° (ESE) 702 3.7 -9.0°
Drops below altitude 10° 20:54:44 10° 23° (NNE) 2,142 6.7 -9.5°
Sets 20:57:02 0° 23° (NNE) 3,059 7.5 -9.8°
